| time (UTC) | temp C | wind direction | speed KPH | gust KPH | rain 1hr cm | rain 24hr cm | rain mn cm | humidity % | barometer mb |
| 20260906224031 | 22 | 268 | 1.6 | 12.9 | 0.00 | 0.00 | 0.00 | 24 | 1020.2 |
| 20260906223533 | 23 | 199 | 3.2 | 12.9 | 0.00 | 0.00 | 0.00 | 24 | 1020.2 |
| 20260906223051 | 22 | 20 | 1.6 | 12.9 | 0.00 | 0.00 | 0.00 | 25 | 1020.2 |
| 20260906222534 | 23 | 271 | 1.6 | 11.3 | 0.00 | 0.00 | 0.00 | 25 | 1020.3 |
| 20260906222033 | 23 | 13 | 1.6 | 9.7 | 0.00 | 0.00 | 0.00 | 24 | 1020.3 |
| 20260906221600 | 23 | 207 | 4.8 | 9.7 | 0.00 | 0.00 | 0.00 | 23 | 1020.3 |
| 20260906221033 | 23 | 64 | 3.2 | 8.0 | 0.00 | 0.00 | 0.00 | 24 | 1020.3 |
| 20260906220532 | 23 | 42 | 3.2 | 11.3 | 0.00 | 0.00 | 0.00 | 23 | 1020.4 |
| 20260906220057 | 23 | 69 | 1.6 | 11.3 | 0.00 | 0.00 | 0.00 | 24 | 1020.5 |
| 20260906215531 | 23 | 8 | 3.2 | 19.3 | 0.00 | 0.00 | 0.00 | 23 | 1020.5 |
| 20260906215031 | 23 | 157 | 3.2 | 19.3 | 0.00 | 0.00 | 0.00 | 24 | 1020.7 |
| 20260906214549 | 23 | 27 | 8.0 | 19.3 | 0.00 | 0.00 | 0.00 | 23 | 1021.0 |
| 20260906214033 | 23 | 131 | 4.8 | 12.9 | 0.00 | 0.00 | 0.00 | 24 | 1021.0 |
| 20260906213533 | 23 | 12 | 1.6 | 16.1 | 0.00 | 0.00 | 0.00 | 24 | 1021.0 |
| 20260906213048 | 23 | 219 | 4.8 | 16.1 | 0.00 | 0.00 | 0.00 | 23 | 1021.1 |
| 20260906212532 | 24 | 337 | 4.8 | 16.1 | 0.00 | 0.00 | 0.00 | 23 | 1021.1 |
| 20260906212034 | 24 | 254 | 4.8 | 12.9 | 0.00 | 0.00 | 0.00 | 23 | 1021.0 |
| 20260906211557 | 23 | 221 | 4.8 | 22.5 | 0.00 | 0.00 | 0.00 | 23 | 1021.0 |
| 20260906211032 | 23 | 174 | 4.8 | 22.5 | 0.00 | 0.00 | 0.00 | 23 | 1021.1 |
| 20260906210535 | 23 | 272 | 3.2 | 14.5 | 0.00 | 0.00 | 0.00 | 23 | 1021.1 |
| 20260906210101 | 23 | 278 | 1.6 | 11.3 | 0.00 | 0.00 | 0.00 | 24 | 1021.2 |
| 20260906205534 | 23 | 341 | 3.2 | 14.5 | 0.00 | 0.00 | 0.00 | 23 | 1021.4 |
| 20260906205034 | 23 | 130 | 3.2 | 19.3 | 0.00 | 0.00 | 0.00 | 25 | 1021.4 |
| 20260906204558 | 23 | 230 | 9.7 | 19.3 | 0.00 | 0.00 | 0.00 | 23 | 1021.5 |
| 20260906204035 | 23 | 125 | 3.2 | 14.5 | 0.00 | 0.00 | 0.00 | 25 | 1021.3 |
| 20260906203534 | 23 | 250 | 3.2 | 14.5 | 0.00 | 0.00 | 0.00 | 22 | 1021.2 |
| 20260906203058 | 23 | 333 | 4.8 | 12.9 | 0.00 | 0.00 | 0.00 | 23 | 1021.3 |
| 20260906202533 | 23 | 317 | 3.2 | 16.1 | 0.00 | 0.00 | 0.00 | 23 | 1021.5 |
| 20260906202035 | 23 | 323 | 3.2 | 16.1 | 0.00 | 0.00 | 0.00 | 23 | 1021.5 |
| 20260906201605 | 23 | 243 | 4.8 | 16.1 | 0.00 | 0.00 | 0.00 | 22 | 1021.5 |
| 20260906201033 | 22 | 314 | 8.0 | 17.7 | 0.00 | 0.00 | 0.00 | 23 | 1021.6 |
| 20260906200533 | 22 | 63 | 3.2 | 20.9 | 0.00 | 0.00 | 0.00 | 23 | 1021.5 |
| 20260906200100 | 22 | 279 | 9.7 | 20.9 | 0.00 | 0.00 | 0.00 | 23 | 1021.5 |
| 20260906195533 | 22 | 108 | 8.0 | 20.9 | 0.00 | 0.00 | 0.00 | 23 | 1021.5 |
| 20260906195033 | 22 | 242 | 11.3 | 20.9 | 0.00 | 0.00 | 0.00 | 23 | 1021.6 |
| 20260906194602 | 23 | 130 | 3.2 | 14.5 | 0.00 | 0.00 | 0.00 | 25 | 1021.7 |
| 20260906194033 | 22 | 338 | 3.2 | 19.3 | 0.00 | 0.00 | 0.00 | 24 | 1021.8 |
| 20260906193533 | 22 | 331 | 8.0 | 19.3 | 0.00 | 0.00 | 0.00 | 25 | 1022.3 |
| 20260906193057 | 22 | 165 | 4.8 | 11.3 | 0.00 | 0.00 | 0.00 | 24 | 1022.4 |
| 20260906192533 | 22 | 77 | 1.6 | 12.9 | 0.00 | 0.00 | 0.00 | 27 | 1022.5 |
| 20260906192033 | 22 | 164 | 3.2 | 16.1 | 0.00 | 0.00 | 0.00 | 25 | 1022.5 |
| 20260906191557 | 22 | 345 | 3.2 | 16.1 | 0.00 | 0.00 | 0.00 | 26 | 1022.7 |
| 20260906191033 | 22 | 208 | 6.4 | 16.1 | 0.00 | 0.00 | 0.00 | 25 | 1022.7 |
| 20260906190533 | 22 | 241 | 3.2 | 17.7 | 0.00 | 0.00 | 0.00 | 25 | 1022.7 |
| 20260906190111 | 22 | 198 | 4.8 | 17.7 | 0.00 | 0.00 | 0.00 | 24 | 1022.9 |
| 20260906185533 | 22 | 197 | 6.4 | 17.7 | 0.00 | 0.00 | 0.00 | 25 | 1023.0 |
| 20260906185033 | 22 | 316 | 3.2 | 11.3 | 0.00 | 0.00 | 0.00 | 26 | 1023.2 |
| 20260906184554 | 22 | 2 | 3.2 | 22.5 | 0.00 | 0.00 | 0.00 | 25 | 1023.4 |
| 20260906184033 | 21 | 191 | 8.0 | 22.5 | 0.00 | 0.00 | 0.00 | 25 | 1023.2 |
| 20260906183533 | 22 | 189 | 6.4 | 22.5 | 0.00 | 0.00 | 0.00 | 25 | 1023.2 |
| 20260906183102 | 22 | 253 | 6.4 | 12.9 | 0.00 | 0.00 | 0.00 | 27 | 1023.2 |
| 20260906182533 | 22 | 338 | 1.6 | 12.9 | 0.00 | 0.00 | 0.00 | 28 | 1023.1 |
| 20260906182034 | 21 | 158 | 4.8 | 12.9 | 0.00 | 0.00 | 0.00 | 26 | 1023.2 |
| 20260906181547 | 21 | 148 | 4.8 | 11.3 | 0.00 | 0.00 | 0.00 | 26 | 1023.2 |
| 20260906181033 | 21 | 129 | 3.2 | 11.3 | 0.00 | 0.00 | 0.00 | 26 | 1023.4 |
| 20260906180534 | 21 | 248 | 6.4 | 16.1 | 0.00 | 0.00 | 0.00 | 27 | 1023.4 |
| 20260906175533 | 21 | 330 | 3.2 | 11.3 | 0.00 | 0.00 | 0.00 | 27 | 1023.6 |
| 20260906175033 | 21 | 237 | 3.2 | 8.0 | 0.00 | 0.00 | 0.00 | 28 | 1023.8 |
| 20260906174554 | 21 | 323 | 3.2 | 14.5 | 0.00 | 0.00 | 0.00 | 27 | 1024.0 |
| 20260906174032 | 21 | 13 | 1.6 | 14.5 | 0.00 | 0.00 | 0.00 | 28 | 1024.0 |
| 20260906173532 | 21 | 221 | 6.4 | 14.5 | 0.00 | 0.00 | 0.00 | 26 | 1024.1 |
| 20260906173052 | 21 | 232 | 1.6 | 8.0 | 0.00 | 0.00 | 0.00 | 29 | 1024.1 |
| 20260906172532 | 20 | 339 | 3.2 | 12.9 | 0.00 | 0.00 | 0.00 | 28 | 1024.1 |
| 20260906172032 | 20 | 15 | 4.8 | 12.9 | 0.00 | 0.00 | 0.00 | 29 | 1024.3 |
| 20260906171559 | 20 | 282 | 4.8 | 14.5 | 0.00 | 0.00 | 0.00 | 28 | 1024.4 |
| 20260906171035 | 20 | 210 | 6.4 | 22.5 | 0.00 | 0.00 | 0.00 | 27 | 1024.4 |
| 20260906170534 | 20 | 241 | 4.8 | 22.5 | 0.00 | 0.00 | 0.00 | 27 | 1024.4 |
| 20260906170057 | 20 | 250 | 1.6 | 14.5 | 0.00 | 0.00 | 0.00 | 29 | 1024.4 |
| 20260906165533 | 20 | 252 | 4.8 | 14.5 | 0.00 | 0.00 | 0.00 | 28 | 1024.3 |
| 20260906165033 | 20 | 302 | 6.4 | 12.9 | 0.00 | 0.00 | 0.00 | 27 | 1024.4 |
| 20260906164557 | 20 | 30 | 3.2 | 20.9 | 0.00 | 0.00 | 0.00 | 28 | 1024.4 |
| 20260906164034 | 20 | 239 | 1.6 | 20.9 | 0.00 | 0.00 | 0.00 | 28 | 1024.3 |
| 20260906163534 | 20 | 153 | 3.2 | 9.7 | 0.00 | 0.00 | 0.00 | 28 | 1024.1 |
| 20260906163052 | 20 | 189 | 3.2 | 14.5 | 0.00 | 0.00 | 0.00 | 27 | 1024.3 |
| 20260906162533 | 20 | 230 | 6.4 | 14.5 | 0.00 | 0.00 | 0.00 | 27 | 1024.3 |
| 20260906162032 | 20 | 160 | 1.6 | 12.9 | 0.00 | 0.00 | 0.00 | 28 | 1024.4 |
| 20260906161557 | 20 | 259 | 4.8 | 12.9 | 0.00 | 0.00 | 0.00 | 27 | 1024.3 |
| 20260906161034 | 20 | 283 | 4.8 | 12.9 | 0.00 | 0.00 | 0.00 | 28 | 1024.4 |
| 20260906160531 | 20 | 169 | 1.6 | 11.3 | 0.00 | 0.00 | 0.00 | 28 | 1024.3 |
| 20260906160107 | 20 | 222 | 3.2 | 11.3 | 0.00 | 0.00 | 0.00 | 30 | 1024.4 |
| 20260906155534 | 20 | 228 | 1.6 | 8.0 | 0.00 | 0.00 | 0.00 | 28 | 1024.3 |
| 20260906155031 | 20 | 0 | 0.0 | 11.3 | 0.00 | 0.00 | 0.00 | 28 | 1024.3 |
| 20260906154600 | 20 | 228 | 3.2 | 11.3 | 0.00 | 0.00 | 0.00 | 28 | 1024.3 |
| 20260906154035 | 20 | 62 | 0.0 | 8.0 | 0.00 | 0.00 | 0.00 | 29 | 1024.2 |
| 20260906153533 | 19 | 287 | 1.6 | 4.8 | 0.00 | 0.00 | 0.00 | 31 | 1024.2 |
| 20260906153103 | 19 | 0 | 1.6 | 4.8 | 0.00 | 0.00 | 0.00 | 32 | 1024.3 |
| 20260906152538 | 19 | 354 | 1.6 | 3.2 | 0.00 | 0.00 | 0.00 | 33 | 1024.4 |
| 20260906152034 | 18 | 359 | 0.0 | 1.6 | 0.00 | 0.00 | 0.00 | 36 | 1024.3 |
| 20260906151557 | 18 | 0 | 0.0 | 1.6 | 0.00 | 0.00 | 0.00 | 38 | 1024.4 |
| 20260906151033 | 18 | 359 | 0.0 | 3.2 | 0.00 | 0.00 | 0.00 | 36 | 1024.4 |
| 20260906150533 | 18 | 359 | 0.0 | 3.2 | 0.00 | 0.00 | 0.00 | 37 | 1024.4 |
| 20260906150058 | 18 | 0 | 0.0 | 1.6 | 0.00 | 0.00 | 0.00 | 35 | 1024.4 |
| 20260906145534 | 18 | 0 | 0.0 | 0.0 | 0.00 | 0.00 | 0.00 | 37 | 1024.4 |
| 20260906145033 | 17 | 0 | 0.0 | 0.0 | 0.00 | 0.00 | 0.00 | 43 | 1024.3 |
| 20260906144553 | 17 | 0 | 0.0 | 0.0 | 0.00 | 0.00 | 0.00 | 40 | 1024.4 |
| 20260906144034 | 17 | 0 | 0.0 | 1.6 | 0.00 | 0.00 | 0.00 | 39 | 1024.4 |
| 20260906143533 | 16 | 0 | 0.0 | 1.6 | 0.00 | 0.00 | 0.00 | 39 | 1024.4 |
| 20260906143057 | 15 | 232 | 1.6 | 1.6 | 0.00 | 0.00 | 0.00 | 37 | 1024.3 |
| 20260906142533 | 15 | 0 | 0.0 | 1.6 | 0.00 | 0.00 | 0.00 | 40 | 1024.4 |
| 20260906142034 | 14 | 233 | 0.0 | 1.6 | 0.00 | 0.00 | 0.00 | 40 | 1024.4 |
| 20260906141554 | 14 | 227 | 0.0 | 1.6 | 0.00 | 0.00 | 0.00 | 42 | 1024.4 |
| 20260906141033 | 13 | 0 | 0.0 | 1.6 | 0.00 | 0.00 | 0.00 | 43 | 1024.3 |
| 20260906140533 | 13 | 0 | 0.0 | 1.6 | 0.00 | 0.00 | 0.00 | 47 | 1024.4 |
| 20260906140056 | 12 | 0 | 0.0 | 1.6 | 0.00 | 0.00 | 0.00 | 45 | 1024.4 |
| 20260906135533 | 11 | 239 | 0.0 | 1.6 | 0.00 | 0.00 | 0.00 | 46 | 1024.5 |
| 20260906135034 | 10 | 0 | 0.0 | 0.0 | 0.00 | 0.00 | 0.00 | 50 | 1024.5 |
| 20260906134558 | 10 | 0 | 0.0 | 0.0 | 0.00 | 0.00 | 0.00 | 49 | 1024.4 |
| 20260906134034 | 10 | 0 | 0.0 | 1.6 | 0.00 | 0.00 | 0.00 | 49 | 1024.4 |
| 20260906133534 | 10 | 0 | 0.0 | 1.6 | 0.00 | 0.00 | 0.00 | 51 | 1024.4 |
| 20260906133116 | 9 | 245 | 0.0 | 1.6 | 0.00 | 0.00 | 0.00 | 51 | 1024.3 |
| 20260906132534 | 9 | 0 | 0.0 | 1.6 | 0.00 | 0.00 | 0.00 | 51 | 1024.3 |
| 20260906132033 | 8 | 0 | 0.0 | 0.0 | 0.00 | 0.00 | 0.00 | 52 | 1024.1 |
| 20260906131557 | 9 | 0 | 0.0 | 1.6 | 0.00 | 0.00 | 0.00 | 51 | 1024.1 |
| 20260906131034 | 9 | 0 | 0.0 | 1.6 | 0.00 | 0.00 | 0.00 | 52 | 1024.1 |
| 20260906130534 | 8 | 245 | 0.0 | 0.0 | 0.00 | 0.00 | 0.00 | 53 | 1024.0 |
| 20260906130048 | 8 | 0 | 0.0 | 1.6 | 0.00 | 0.00 | 0.00 | 52 | 1024.1 |
| 20260906125533 | 9 | 0 | 0.0 | 1.6 | 0.00 | 0.00 | 0.00 | 53 | 1024.1 |
| 20260906125032 | 8 | 0 | 0.0 | 1.6 | 0.00 | 0.00 | 0.00 | 53 | 1024.1 |
| 20260906124554 | 9 | 0 | 0.0 | 0.0 | 0.00 | 0.00 | 0.00 | 53 | 1024.1 |
| 20260906124033 | 10 | 0 | 0.0 | 0.0 | 0.00 | 0.00 | 0.00 | 52 | 1024.0 |
| 20260906123535 | 10 | 0 | 0.0 | 1.6 | 0.00 | 0.00 | 0.00 | 51 | 1024.0 |
| 20260906123050 | 10 | 0 | 0.0 | 1.6 | 0.00 | 0.00 | 0.00 | 50 | 1024.0 |
| 20260906122533 | 9 | 245 | 0.0 | 1.6 | 0.00 | 0.00 | 0.00 | 51 | 1024.1 |
| 20260906122034 | 9 | 0 | 0.0 | 4.8 | 0.00 | 0.00 | 0.00 | 51 | 1024.2 |
| 20260906121557 | 10 | 0 | 0.0 | 4.8 | 0.00 | 0.00 | 0.00 | 52 | 1024.1 |
| 20260906121033 | 9 | 236 | 0.0 | 4.8 | 0.00 | 0.00 | 0.00 | 56 | 1024.1 |
| 20260906120533 | 9 | 227 | 0.0 | 0.0 | 0.00 | 0.00 | 0.00 | 54 | 1024.1 |
| 20260906120053 | 9 | 0 | 0.0 | 1.6 | 0.00 | 0.00 | 0.00 | 55 | 1024.2 |
| 20260906115535 | 10 | 0 | 0.0 | 1.6 | 0.00 | 0.00 | 0.00 | 51 | 1024.2 |
| 20260906115032 | 10 | 0 | 0.0 | 1.6 | 0.00 | 0.00 | 0.00 | 49 | 1024.0 |
| 20260906114604 | 10 | 0 | 0.0 | 1.6 | 0.00 | 0.00 | 0.00 | 48 | 1024.1 |
| 20260906114034 | 11 | 0 | 0.0 | 1.6 | 0.00 | 0.00 | 0.00 | 46 | 1024.1 |
| 20260906113533 | 11 | 0 | 0.0 | 3.2 | 0.00 | 0.00 | 0.00 | 46 | 1024.1 |
| 20260906113058 | 11 | 0 | 1.6 | 3.2 | 0.00 | 0.00 | 0.00 | 45 | 1024.1 |
| 20260906112533 | 11 | 233 | 0.0 | 4.8 | 0.00 | 0.00 | 0.00 | 46 | 1024.1 |
| 20260906112033 | 11 | 235 | 3.2 | 4.8 | 0.00 | 0.00 | 0.00 | 45 | 1024.1 |
| 20260906111550 | 11 | 236 | 1.6 | 3.2 | 0.00 | 0.00 | 0.00 | 46 | 1024.1 |
| 20260906111033 | 11 | 234 | 0.0 | 3.2 | 0.00 | 0.00 | 0.00 | 46 | 1024.1 |
| 20260906110535 | 11 | 0 | 0.0 | 3.2 | 0.00 | 0.00 | 0.00 | 45 | 1024.1 |
| 20260906110052 | 11 | 234 | 1.6 | 4.8 | 0.00 | 0.00 | 0.00 | 45 | 1024.0 |
| 20260906105533 | 11 | 253 | 3.2 | 4.8 | 0.00 | 0.00 | 0.00 | 46 | 1023.9 |
| 20260906105034 | 11 | 230 | 0.0 | 3.2 | 0.00 | 0.00 | 0.00 | 46 | 1023.8 |
| 20260906104614 | 11 | 230 | 0.0 | 1.6 | 0.00 | 0.00 | 0.00 | 46 | 1023.7 |
| 20260906104032 | 11 | 0 | 0.0 | 1.6 | 0.00 | 0.00 | 0.00 | 47 | 1023.7 |
| 20260906103531 | 11 | 230 | 0.0 | 1.6 | 0.00 | 0.00 | 0.00 | 47 | 1023.7 |
| 20260906103048 | 12 | 230 | 0.0 | 1.6 | 0.00 | 0.00 | 0.00 | 46 | 1023.7 |
| 20260906102532 | 12 | 0 | 0.0 | 1.6 | 0.00 | 0.00 | 0.00 | 47 | 1023.7 |
| 20260906102032 | 12 | 0 | 0.0 | 1.6 | 0.00 | 0.00 | 0.00 | 47 | 1023.7 |
| 20260906101558 | 11 | 0 | 0.0 | 1.6 | 0.00 | 0.00 | 0.00 | 48 | 1023.7 |
| 20260906101034 | 12 | 0 | 0.0 | 1.6 | 0.00 | 0.00 | 0.00 | 48 | 1023.7 |
| 20260906100534 | 12 | 230 | 1.6 | 1.6 | 0.00 | 0.00 | 0.00 | 47 | 1023.6 |
| 20260906100055 | 12 | 229 | 0.0 | 3.2 | 0.00 | 0.00 | 0.00 | 48 | 1023.7 |
| 20260906095533 | 12 | 0 | 0.0 | 3.2 | 0.00 | 0.00 | 0.00 | 48 | 1023.6 |
| 20260906095033 | 12 | 229 | 1.6 | 3.2 | 0.00 | 0.00 | 0.00 | 46 | 1023.6 |
| 20260906094550 | 12 | 233 | 0.0 | 1.6 | 0.00 | 0.00 | 0.00 | 46 | 1023.6 |
| 20260906094033 | 13 | 0 | 0.0 | 4.8 | 0.00 | 0.00 | 0.00 | 46 | 1023.6 |
| 20260906093534 | 12 | 235 | 1.6 | 4.8 | 0.00 | 0.00 | 0.00 | 46 | 1023.6 |
| 20260906093110 | 13 | 212 | 3.2 | 4.8 | 0.00 | 0.00 | 0.00 | 46 | 1023.6 |
| 20260906092534 | 13 | 246 | 1.6 | 3.2 | 0.00 | 0.00 | 0.00 | 46 | 1023.6 |
| 20260906092033 | 13 | 0 | 0.0 | 4.8 | 0.00 | 0.00 | 0.00 | 46 | 1023.6 |
| 20260906091553 | 13 | 253 | 1.6 | 6.4 | 0.00 | 0.00 | 0.00 | 46 | 1023.6 |
| 20260906091031 | 13 | 242 | 3.2 | 6.4 | 0.00 | 0.00 | 0.00 | 45 | 1023.6 |
| 20260906090531 | 13 | 252 | 3.2 | 6.4 | 0.00 | 0.00 | 0.00 | 45 | 1023.6 |
| 20260906090052 | 13 | 221 | 3.2 | 4.8 | 0.00 | 0.00 | 0.00 | 46 | 1023.6 |
| 20260906085534 | 13 | 0 | 3.2 | 4.8 | 0.00 | 0.00 | 0.00 | 46 | 1023.5 |
| 20260906085032 | 13 | 233 | 1.6 | 4.8 | 0.00 | 0.00 | 0.00 | 46 | 1023.6 |
| 20260906084557 | 13 | 231 | 1.6 | 4.8 | 0.00 | 0.00 | 0.00 | 46 | 1023.5 |
| 20260906084031 | 13 | 248 | 1.6 | 4.8 | 0.00 | 0.00 | 0.00 | 46 | 1023.6 |
| 20260906083534 | 13 | 221 | 1.6 | 3.2 | 0.00 | 0.00 | 0.00 | 46 | 1023.5 |
| 20260906083058 | 13 | 0 | 0.0 | 4.8 | 0.00 | 0.00 | 0.00 | 46 | 1023.6 |
| 20260906082534 | 13 | 207 | 3.2 | 4.8 | 0.00 | 0.00 | 0.00 | 46 | 1023.6 |
| 20260906082033 | 13 | 229 | 3.2 | 6.4 | 0.00 | 0.00 | 0.00 | 46 | 1023.6 |
| 20260906081550 | 13 | 236 | 3.2 | 8.0 | 0.00 | 0.00 | 0.00 | 46 | 1023.5 |
| 20260906081033 | 13 | 209 | 3.2 | 8.0 | 0.00 | 0.00 | 0.00 | 47 | 1023.5 |
| 20260906080533 | 13 | 41 | 3.2 | 9.7 | 0.00 | 0.00 | 0.00 | 47 | 1023.5 |
| 20260906080104 | 12 | 263 | 4.8 | 9.7 | 0.00 | 0.00 | 0.00 | 48 | 1023.5 |
| 20260906075531 | 13 | 248 | 1.6 | 4.8 | 0.00 | 0.00 | 0.00 | 47 | 1023.6 |
| 20260906075033 | 13 | 274 | 0.0 | 1.6 | 0.00 | 0.00 | 0.00 | 47 | 1023.6 |
| 20260906074551 | 13 | 276 | 0.0 | 4.8 | 0.00 | 0.00 | 0.00 | 47 | 1023.8 |
| 20260906074033 | 13 | 0 | 0.0 | 6.4 | 0.00 | 0.00 | 0.00 | 47 | 1023.7 |
| 20260906073533 | 13 | 248 | 3.2 | 6.4 | 0.00 | 0.00 | 0.00 | 46 | 1023.7 |
| 20260906073056 | 12 | 240 | 3.2 | 4.8 | 0.00 | 0.00 | 0.00 | 46 | 1023.7 |
| 20260906072533 | 12 | 226 | 3.2 | 4.8 | 0.00 | 0.00 | 0.00 | 47 | 1023.6 |
| 20260906072033 | 12 | 0 | 0.0 | 1.6 | 0.00 | 0.00 | 0.00 | 47 | 1023.6 |
| 20260906071550 | 12 | 0 | 0.0 | 1.6 | 0.00 | 0.00 | 0.00 | 46 | 1023.8 |
| 20260906071034 | 13 | 0 | 0.0 | 1.6 | 0.00 | 0.00 | 0.00 | 46 | 1023.8 |
| 20260906070533 | 13 | 0 | 0.0 | 1.6 | 0.00 | 0.00 | 0.00 | 44 | 1023.7 |
| 20260906070058 | 13 | 0 | 0.0 | 1.6 | 0.00 | 0.00 | 0.00 | 44 | 1023.8 |
| 20260906065533 | 13 | 0 | 0.0 | 3.2 | 0.00 | 0.00 | 0.00 | 44 | 1023.7 |
| 20260906065032 | 14 | 247 | 0.0 | 3.2 | 0.00 | 0.00 | 0.00 | 43 | 1023.6 |
| 20260906064552 | 14 | 234 | 0.0 | 3.2 | 0.00 | 0.00 | 0.00 | 43 | 1023.6 |
| 20260906064035 | 13 | 235 | 1.6 | 3.2 | 0.00 | 0.00 | 0.00 | 44 | 1023.6 |
| 20260906063533 | 13 | 197 | 0.0 | 1.6 | 0.00 | 0.00 | 0.00 | 46 | 1023.6 |
| 20260906063100 | 13 | 197 | 0.0 | 3.2 | 0.00 | 0.00 | 0.00 | 44 | 1023.5 |
| 20260906062536 | 13 | 195 | 0.0 | 3.2 | 0.00 | 0.00 | 0.00 | 46 | 1023.6 |
| 20260906062033 | 13 | 258 | 1.6 | 3.2 | 0.00 | 0.00 | 0.00 | 44 | 1023.6 |
| 20260906061547 | 13 | 0 | 0.0 | 1.6 | 0.00 | 0.00 | 0.00 | 44 | 1023.4 |
| 20260906061033 | 13 | 0 | 0.0 | 1.6 | 0.00 | 0.00 | 0.00 | 44 | 1023.5 |
| 20260906060533 | 13 | 0 | 0.0 | 1.6 | 0.00 | 0.00 | 0.00 | 43 | 1023.6 |
| 20260906060059 | 13 | 0 | 0.0 | 1.6 | 0.00 | 0.00 | 0.00 | 44 | 1023.7 |
| 20260906055533 | 13 | 0 | 0.0 | 1.6 | 0.00 | 0.00 | 0.00 | 43 | 1023.7 |
| 20260906055033 | 13 | 228 | 0.0 | 1.6 | 0.00 | 0.00 | 0.00 | 43 | 1023.7 |
| 20260906054604 | 13 | 0 | 0.0 | 1.6 | 0.00 | 0.00 | 0.00 | 44 | 1023.6 |
| 20260906054033 | 13 | 0 | 0.0 | 1.6 | 0.00 | 0.00 | 0.00 | 44 | 1023.6 |
| 20260906053532 | 13 | 230 | 0.0 | 0.0 | 0.00 | 0.00 | 0.00 | 43 | 1023.6 |
| 20260906053054 | 13 | 0 | 0.0 | 1.6 | 0.00 | 0.00 | 0.00 | 42 | 1023.6 |
| 20260906052536 | 14 | 0 | 0.0 | 3.2 | 0.00 | 0.00 | 0.00 | 42 | 1023.7 |
| 20260906052034 | 14 | 230 | 0.0 | 3.2 | 0.00 | 0.00 | 0.00 | 42 | 1023.8 |
| 20260906051556 | 13 | 233 | 1.6 | 3.2 | 0.00 | 0.00 | 0.00 | 43 | 1023.7 |
| 20260906051034 | 12 | 236 | 0.0 | 3.2 | 0.00 | 0.00 | 0.00 | 46 | 1023.8 |
| 20260906050535 | 12 | 0 | 0.0 | 1.6 | 0.00 | 0.00 | 0.00 | 49 | 1023.9 |
| 20260906050121 | 13 | 0 | 0.0 | 1.6 | 0.00 | 0.00 | 0.00 | 50 | 1023.8 |
| 20260906045534 | 13 | 0 | 0.0 | 0.0 | 0.00 | 0.00 | 0.00 | 49 | 1023.9 |
| 20260906045032 | 14 | 0 | 0.0 | 0.0 | 0.00 | 0.00 | 0.00 | 43 | 1024.0 |
| 20260906044553 | 15 | 0 | 0.0 | 0.0 | 0.00 | 0.00 | 0.00 | 42 | 1023.9 |
| 20260906044033 | 15 | 0 | 0.0 | 1.6 | 0.00 | 0.00 | 0.00 | 39 | 1023.8 |
| 20260906043534 | 15 | 0 | 0.0 | 1.6 | 0.00 | 0.00 | 0.00 | 39 | 1023.8 |
| 20260906043058 | 15 | 0 | 0.0 | 1.6 | 0.00 | 0.00 | 0.00 | 39 | 1023.6 |
| 20260906042533 | 15 | 227 | 0.0 | 4.8 | 0.00 | 0.00 | 0.00 | 38 | 1023.5 |
| 20260906042033 | 15 | 228 | 1.6 | 4.8 | 0.00 | 0.00 | 0.00 | 37 | 1023.5 |
| 20260906041558 | 16 | 235 | 1.6 | 4.8 | 0.00 | 0.00 | 0.00 | 37 | 1023.5 |
| 20260906041033 | 16 | 237 | 0.0 | 3.2 | 0.00 | 0.00 | 0.00 | 37 | 1023.3 |
| 20260906040533 | 16 | 230 | 1.6 | 4.8 | 0.00 | 0.00 | 0.00 | 37 | 1023.4 |
| 20260906040105 | 15 | 240 | 1.6 | 4.8 | 0.00 | 0.00 | 0.00 | 39 | 1023.2 |
| 20260906035532 | 15 | 321 | 0.0 | 1.6 | 0.00 | 0.00 | 0.00 | 40 | 1023.2 |
| 20260906035034 | 15 | 0 | 0.0 | 1.6 | 0.00 | 0.00 | 0.00 | 39 | 1023.2 |
| 20260906034547 | 15 | 332 | 0.0 | 1.6 | 0.00 | 0.00 | 0.00 | 40 | 1023.2 |
| 20260906034033 | 15 | 0 | 0.0 | 1.6 | 0.00 | 0.00 | 0.00 | 41 | 1023.2 |
| 20260906033533 | 15 | 0 | 0.0 | 1.6 | 0.00 | 0.00 | 0.00 | 40 | 1023.3 |
| 20260906033055 | 15 | 331 | 0.0 | 1.6 | 0.00 | 0.00 | 0.00 | 41 | 1023.4 |
| 20260906032538 | 15 | 0 | 0.0 | 0.0 | 0.00 | 0.00 | 0.00 | 41 | 1023.2 |
| 20260906032033 | 15 | 0 | 0.0 | 0.0 | 0.00 | 0.00 | 0.00 | 40 | 1023.2 |
| 20260906031600 | 15 | 0 | 0.0 | 0.0 | 0.00 | 0.00 | 0.00 | 40 | 1023.2 |
| 20260906031033 | 15 | 0 | 0.0 | 0.0 | 0.00 | 0.00 | 0.00 | 41 | 1023.2 |
| 20260906030533 | 15 | 0 | 0.0 | 0.0 | 0.00 | 0.00 | 0.00 | 39 | 1023.2 |
| 20260906030053 | 15 | 0 | 0.0 | 1.6 | 0.00 | 0.00 | 0.00 | 39 | 1023.1 |
| 20260906025532 | 16 | 0 | 0.0 | 1.6 | 0.00 | 0.00 | 0.00 | 39 | 1023.1 |
| 20260906025036 | 16 | 331 | 0.0 | 1.6 | 0.00 | 0.00 | 0.00 | 39 | 1023.0 |
| 20260906024610 | 16 | 0 | 0.0 | 0.0 | 0.00 | 0.00 | 0.00 | 39 | 1023.0 |
| 20260906024033 | 16 | 0 | 0.0 | 0.0 | 0.00 | 0.00 | 0.00 | 38 | 1023.0 |
| 20260906023534 | 16 | 0 | 0.0 | 1.6 | 0.00 | 0.00 | 0.00 | 38 | 1022.9 |
| 20260906023059 | 16 | 0 | 0.0 | 1.6 | 0.00 | 0.00 | 0.00 | 37 | 1022.8 |
| 20260906022533 | 16 | 332 | 0.0 | 1.6 | 0.00 | 0.00 | 0.00 | 37 | 1022.9 |
| 20260906022034 | 17 | 0 | 0.0 | 1.6 | 0.00 | 0.00 | 0.00 | 37 | 1022.8 |
| 20260906021559 | 17 | 0 | 0.0 | 1.6 | 0.00 | 0.00 | 0.00 | 37 | 1022.7 |
| 20260906021036 | 18 | 0 | 0.0 | 0.0 | 0.00 | 0.00 | 0.00 | 36 | 1022.8 |
| 20260906020534 | 19 | 0 | 0.0 | 0.0 | 0.00 | 0.00 | 0.00 | 35 | 1022.7 |
| 20260906020055 | 20 | 0 | 0.0 | 1.6 | 0.00 | 0.00 | 0.00 | 30 | 1022.8 |
| 20260906015532 | 20 | 0 | 0.0 | 1.6 | 0.00 | 0.00 | 0.00 | 28 | 1022.7 |
| 20260906015033 | 20 | 0 | 0.0 | 1.6 | 0.00 | 0.00 | 0.00 | 28 | 1022.7 |
| 20260906014607 | 20 | 0 | 0.0 | 1.6 | 0.00 | 0.00 | 0.00 | 28 | 1022.7 |
| 20260906014033 | 21 | 0 | 0.0 | 1.6 | 0.00 | 0.00 | 0.00 | 28 | 1022.7 |
| 20260906013533 | 21 | 0 | 0.0 | 1.6 | 0.00 | 0.00 | 0.00 | 27 | 1022.7 |
| 20260906013052 | 21 | 0 | 0.0 | 4.8 | 0.00 | 0.00 | 0.00 | 27 | 1022.7 |
| 20260906012533 | 21 | 0 | 0.0 | 4.8 | 0.00 | 0.00 | 0.00 | 27 | 1022.7 |
| 20260906012036 | 21 | 115 | 1.6 | 4.8 | 0.00 | 0.00 | 0.00 | 27 | 1022.8 |
| 20260906011549 | 22 | 68 | 1.6 | 4.8 | 0.00 | 0.00 | 0.00 | 27 | 1022.8 |
| 20260906011033 | 22 | 164 | 0.0 | 4.8 | 0.00 | 0.00 | 0.00 | 26 | 1022.8 |
| 20260906010533 | 22 | 124 | 1.6 | 4.8 | 0.00 | 0.00 | 0.00 | 26 | 1022.8 |
| 20260906010059 | 22 | 0 | 1.6 | 4.8 | 0.00 | 0.00 | 0.00 | 26 | 1022.9 |
| 20260906005534 | 22 | 143 | 1.6 | 6.4 | 0.00 | 0.00 | 0.00 | 26 | 1022.9 |
| 20260906005036 | 22 | 0 | 1.6 | 6.4 | 0.00 | 0.00 | 0.00 | 26 | 1022.9 |
| 20260906004606 | 22 | 35 | 1.6 | 6.4 | 0.00 | 0.00 | 0.00 | 26 | 1022.9 |
| 20260906004033 | 23 | 58 | 1.6 | 6.4 | 0.00 | 0.00 | 0.00 | 25 | 1022.9 |
| 20260906003533 | 23 | 32 | 1.6 | 4.8 | 0.00 | 0.00 | 0.00 | 26 | 1022.8 |
| 20260906003052 | 23 | 63 | 1.6 | 11.3 | 0.00 | 0.00 | 0.00 | 24 | 1022.8 |
| 20260906002532 | 23 | 148 | 3.2 | 11.3 | 0.00 | 0.00 | 0.00 | 24 | 1022.8 |
| 20260906002034 | 24 | 135 | 4.8 | 19.3 | 0.00 | 0.00 | 0.00 | 21 | 1022.7 |
| 20260906001549 | 25 | 0 | 3.2 | 19.3 | 0.00 | 0.00 | 0.00 | 21 | 1022.8 |
| 20260906001033 | 25 | 259 | 3.2 | 6.4 | 0.00 | 0.00 | 0.00 | 20 | 1022.7 |
| 20260906000533 | 25 | 359 | 0.0 | 8.0 | 0.00 | 0.00 | 0.00 | 20 | 1022.7 |
| 20260906000047 | 25 | 89 | 3.2 | 9.7 | 0.00 | 0.00 | 0.00 | 20 | 1022.6 |
| 20260905235533 | 25 | 330 | 3.2 | 11.3 | 0.00 | 0.00 | 0.00 | 20 | 1022.6 |
| 20260905235035 | 25 | 252 | 4.8 | 11.3 | 0.00 | 0.00 | 0.00 | 21 | 1022.7 |
| 20260905234610 | 25 | 338 | 3.2 | 11.3 | 0.00 | 0.00 | 0.00 | 21 | 1022.7 |
| 20260905234033 | 25 | 356 | 4.8 | 11.3 | 0.00 | 0.00 | 0.00 | 20 | 1022.6 |
| 20260905233532 | 25 | 0 | 1.6 | 6.4 | 0.00 | 0.00 | 0.00 | 21 | 1022.7 |
| 20260905233047 | 25 | 221 | 0.0 | 14.5 | 0.00 | 0.00 | 0.00 | 21 | 1022.7 |
| 20260905232533 | 24 | 0 | 4.8 | 14.5 | 0.00 | 0.00 | 0.00 | 22 | 1022.7 |
| 20260905232035 | 24 | 279 | 4.8 | 14.5 | 0.00 | 0.00 | 0.00 | 20 | 1022.7 |
| 20260905231557 | 24 | 211 | 1.6 | 6.4 | 0.00 | 0.00 | 0.00 | 21 | 1022.6 |
| 20260905231034 | 24 | 207 | 0.0 | 4.8 | 0.00 | 0.00 | 0.00 | 20 | 1022.7 |
| 20260905230533 | 24 | 0 | 1.6 | 11.3 | 0.00 | 0.00 | 0.00 | 21 | 1022.7 |
| 20260905230123 | 25 | 238 | 1.6 | 11.3 | 0.00 | 0.00 | 0.00 | 21 | 1022.7 |
| 20260905225535 | 24 | 337 | 3.2 | 11.3 | 0.00 | 0.00 | 0.00 | 21 | 1022.7 |
| 20260905225033 | 24 | 307 | 1.6 | 16.1 | 0.00 | 0.00 | 0.00 | 22 | 1022.7 |
| 20260905224549 | 25 | 346 | 4.8 | 16.1 | 0.00 | 0.00 | 0.00 | 20 | 1022.8 |